Year,Month,Day,Hour,Minute,Value (Times are PST for temperature in C)
2016,11,16,00,00,2.60
2016,11,16,00,01,2.60
2016,11,16,00,02,2.60
2016,11,16,00,03,2.60
2016,11,16,00,04,2.60
2016,11,16,00,05,2.60
2016,11,16,00,06,2.50
2016,11,16,00,07,2.50
2016,11,16,00,08,2.40
2016,11,16,00,09,2.40
2016,11,16,00,10,2.40
2016,11,16,00,11,2.30
2016,11,16,00,12,2.30
2016,11,16,00,13,2.30
2016,11,16,00,14,2.30
2016,11,16,00,15,2.30
2016,11,16,00,16,2.30
2016,11,16,00,17,2.20
2016,11,16,00,18,2.20
2016,11,16,00,19,2.20
2016,11,16,00,20,2.10
2016,11,16,00,21,2.10
2016,11,16,00,22,2.10
2016,11,16,00,23,2.10
2016,11,16,00,24,2.10
2016,11,16,00,25,2.00
2016,11,16,00,26,2.00
2016,11,16,00,27,2.00
2016,11,16,00,28,1.90
2016,11,16,00,29,1.90
2016,11,16,00,30,1.90
2016,11,16,00,31,1.90
2016,11,16,00,32,1.90
2016,11,16,00,33,1.90
2016,11,16,00,34,1.90
2016,11,16,00,35,1.90
2016,11,16,00,36,1.90
2016,11,16,00,37,1.90
2016,11,16,00,38,1.90
2016,11,16,00,39,1.90
2016,11,16,00,40,1.90
2016,11,16,00,41,1.90
2016,11,16,00,42,1.90
2016,11,16,00,43,1.80
2016,11,16,00,44,1.90
2016,11,16,00,45,1.80
2016,11,16,00,46,1.80
2016,11,16,00,47,1.80
2016,11,16,00,48,1.80
2016,11,16,00,49,1.80
2016,11,16,00,50,1.80
2016,11,16,00,51,1.80
2016,11,16,00,52,1.70
2016,11,16,00,53,1.70
2016,11,16,00,54,1.80
2016,11,16,00,55,1.80
2016,11,16,00,56,1.80
2016,11,16,00,57,1.80
2016,11,16,00,58,1.70
2016,11,16,00,59,1.70
2016,11,16,01,00,1.70
2016,11,16,01,01,1.70
2016,11,16,01,02,1.70
2016,11,16,01,03,1.70
2016,11,16,01,04,1.70
2016,11,16,01,05,1.70
2016,11,16,01,06,1.70
2016,11,16,01,07,1.70
2016,11,16,01,08,1.70
2016,11,16,01,09,1.70
2016,11,16,01,10,1.70
2016,11,16,01,11,1.70
2016,11,16,01,12,1.70
2016,11,16,01,13,1.70
2016,11,16,01,14,1.70
2016,11,16,01,15,1.70
2016,11,16,01,16,1.70
2016,11,16,01,17,1.70
2016,11,16,01,18,1.70
2016,11,16,01,19,1.60
2016,11,16,01,20,1.60
2016,11,16,01,21,1.60
2016,11,16,01,22,1.50
2016,11,16,01,23,1.50
2016,11,16,01,24,1.50
2016,11,16,01,25,1.50
2016,11,16,01,26,1.60
2016,11,16,01,27,1.60
2016,11,16,01,28,1.60
2016,11,16,01,29,1.60
2016,11,16,01,30,1.60
2016,11,16,01,31,1.60
2016,11,16,01,32,1.60
2016,11,16,01,33,1.60
2016,11,16,01,34,1.60
2016,11,16,01,35,1.60
2016,11,16,01,36,1.60
2016,11,16,01,37,1.60
2016,11,16,01,38,1.60
2016,11,16,01,39,1.60
2016,11,16,01,40,1.60
2016,11,16,01,41,1.50
2016,11,16,01,42,1.50
2016,11,16,01,43,1.50
2016,11,16,01,44,1.50
2016,11,16,01,45,1.50
2016,11,16,01,46,1.50
2016,11,16,01,47,1.50
2016,11,16,01,48,1.50
2016,11,16,01,49,1.50
2016,11,16,01,50,1.50
2016,11,16,01,51,1.50
2016,11,16,01,52,1.50
2016,11,16,01,53,1.40
2016,11,16,01,54,1.40
2016,11,16,01,55,1.40
2016,11,16,01,56,1.40
2016,11,16,01,57,1.40
2016,11,16,01,58,1.30
2016,11,16,01,59,1.30
2016,11,16,02,00,1.30
2016,11,16,02,01,1.30
2016,11,16,02,02,1.30
2016,11,16,02,03,1.20
2016,11,16,02,04,1.30
2016,11,16,02,05,1.30
2016,11,16,02,06,1.30
2016,11,16,02,07,1.30
2016,11,16,02,08,1.30
2016,11,16,02,09,1.20
2016,11,16,02,10,1.20
2016,11,16,02,11,1.20
2016,11,16,02,12,1.20
2016,11,16,02,13,1.20
2016,11,16,02,14,1.20
2016,11,16,02,15,1.20
2016,11,16,02,16,1.20
2016,11,16,02,17,1.20
2016,11,16,02,18,1.20
2016,11,16,02,19,1.20
2016,11,16,02,20,1.20
2016,11,16,02,21,1.20
2016,11,16,02,22,1.20
2016,11,16,02,23,1.30
2016,11,16,02,24,1.30
2016,11,16,02,25,1.30
2016,11,16,02,26,1.30
2016,11,16,02,27,1.30
2016,11,16,02,28,1.30
2016,11,16,02,29,1.30
2016,11,16,02,30,1.40
2016,11,16,02,31,1.40
2016,11,16,02,32,1.40
2016,11,16,02,33,1.40
2016,11,16,02,34,1.40
2016,11,16,02,35,1.30
2016,11,16,02,36,1.30
2016,11,16,02,37,1.30
2016,11,16,02,38,1.30
2016,11,16,02,39,1.30
2016,11,16,02,40,1.30
2016,11,16,02,41,1.30
2016,11,16,02,42,1.30
2016,11,16,02,43,1.30
2016,11,16,02,44,1.30
2016,11,16,02,45,1.30
2016,11,16,02,46,1.30
2016,11,16,02,47,1.30
2016,11,16,02,48,1.30
2016,11,16,02,49,1.40
2016,11,16,02,50,1.40
2016,11,16,02,51,1.40
2016,11,16,02,52,1.40
2016,11,16,02,53,1.40
2016,11,16,02,54,1.40
2016,11,16,02,55,1.40
2016,11,16,02,56,1.40
2016,11,16,02,57,1.40
2016,11,16,02,58,1.40
2016,11,16,02,59,1.30
2016,11,16,03,00,1.30
2016,11,16,03,01,1.30
2016,11,16,03,02,1.30
2016,11,16,03,06,1.30
2016,11,16,03,07,1.30
2016,11,16,03,08,1.30
2016,11,16,03,09,1.30
2016,11,16,03,10,1.30
2016,11,16,03,11,1.30
2016,11,16,03,12,1.30
2016,11,16,03,13,1.30
2016,11,16,03,14,1.20
2016,11,16,03,15,1.20
2016,11,16,03,16,1.20
2016,11,16,03,17,1.10
2016,11,16,03,18,1.10
2016,11,16,03,19,1.10
2016,11,16,03,20,1.10
2016,11,16,03,21,1.10
2016,11,16,03,22,1.20
2016,11,16,03,23,1.20
2016,11,16,03,24,1.20
2016,11,16,03,25,1.10
2016,11,16,03,26,1.10
2016,11,16,03,27,1.10
2016,11,16,03,28,1.00
2016,11,16,03,29,1.00
2016,11,16,03,30,1.00
2016,11,16,03,31,1.00
2016,11,16,03,32,1.00
2016,11,16,03,33,1.10
2016,11,16,03,34,1.10
2016,11,16,03,35,1.20
2016,11,16,03,36,1.20
2016,11,16,03,37,1.20
2016,11,16,03,38,1.30
2016,11,16,03,39,1.30
2016,11,16,03,40,1.30
2016,11,16,03,41,1.30
2016,11,16,03,42,1.20
2016,11,16,03,43,1.20
2016,11,16,03,44,1.20
2016,11,16,03,45,1.20
2016,11,16,03,46,1.10
2016,11,16,03,47,1.10
2016,11,16,03,48,1.10
2016,11,16,03,49,1.10
2016,11,16,03,50,1.10
2016,11,16,03,51,1.10
2016,11,16,03,52,1.20
2016,11,16,03,53,1.20
2016,11,16,03,54,1.30
2016,11,16,03,55,1.30
2016,11,16,03,56,1.30
2016,11,16,03,57,1.40
2016,11,16,03,58,1.40
2016,11,16,03,59,1.40
2016,11,16,04,00,1.40
2016,11,16,04,01,1.40
2016,11,16,04,02,1.40
2016,11,16,04,03,1.40
2016,11,16,04,04,1.40
2016,11,16,04,05,1.40
2016,11,16,04,06,1.40
2016,11,16,04,07,1.40
2016,11,16,04,08,1.40
2016,11,16,04,09,1.40
2016,11,16,04,10,1.50
2016,11,16,04,11,1.50
2016,11,16,04,12,1.50
2016,11,16,04,13,1.50
2016,11,16,04,14,1.60
2016,11,16,04,15,1.60
2016,11,16,04,16,1.60
2016,11,16,04,17,1.70
2016,11,16,04,18,1.70
2016,11,16,04,19,1.70
2016,11,16,04,20,1.70
2016,11,16,04,21,1.70
2016,11,16,04,22,1.70
2016,11,16,04,23,1.70
2016,11,16,04,24,1.70
2016,11,16,04,25,1.70
2016,11,16,04,26,1.70
2016,11,16,04,27,1.60
2016,11,16,04,28,1.60
2016,11,16,04,29,1.50
2016,11,16,04,30,1.40
2016,11,16,04,31,1.40
2016,11,16,04,32,1.40
2016,11,16,04,33,1.40
2016,11,16,04,34,1.50
2016,11,16,04,35,1.50
2016,11,16,04,36,1.50
2016,11,16,04,37,1.60
2016,11,16,04,38,1.60
2016,11,16,04,39,1.60
2016,11,16,04,40,1.60
2016,11,16,04,41,1.60
2016,11,16,04,42,1.60
2016,11,16,04,43,1.60
2016,11,16,04,44,1.60
2016,11,16,04,45,1.60
2016,11,16,04,46,1.70
2016,11,16,04,47,1.70
2016,11,16,04,48,1.70
2016,11,16,04,49,1.70
2016,11,16,04,50,1.70
2016,11,16,04,51,1.70
2016,11,16,04,52,1.70
2016,11,16,04,53,1.70
2016,11,16,04,54,1.70
2016,11,16,04,55,1.70
2016,11,16,04,56,1.70
2016,11,16,04,57,1.80
2016,11,16,04,58,1.80
2016,11,16,04,59,1.80
2016,11,16,05,00,1.90
2016,11,16,05,01,1.90
2016,11,16,05,02,1.90
2016,11,16,05,03,1.90
2016,11,16,05,04,1.90
2016,11,16,05,05,1.90
2016,11,16,05,06,1.90
2016,11,16,05,07,1.90
2016,11,16,05,08,1.90
2016,11,16,05,09,1.90
2016,11,16,05,10,2.00
2016,11,16,05,11,2.00
2016,11,16,05,12,2.00
2016,11,16,05,13,2.00
2016,11,16,05,14,1.90
2016,11,16,05,15,1.90
2016,11,16,05,16,1.90
2016,11,16,05,17,1.80
2016,11,16,05,18,1.80
2016,11,16,05,19,1.80
2016,11,16,05,20,1.80
2016,11,16,05,21,1.80
2016,11,16,05,22,1.80
2016,11,16,05,23,1.90
2016,11,16,05,24,1.90
2016,11,16,05,25,1.90
2016,11,16,05,26,2.00
2016,11,16,05,27,2.00
2016,11,16,05,28,2.00
2016,11,16,05,29,2.00
2016,11,16,05,30,2.00
2016,11,16,05,31,2.10
2016,11,16,05,32,2.10
2016,11,16,05,33,2.10
2016,11,16,05,34,2.10
2016,11,16,05,35,2.20
2016,11,16,05,36,2.20
2016,11,16,05,37,2.30
2016,11,16,05,38,2.30
2016,11,16,05,39,2.30
2016,11,16,05,40,2.40
2016,11,16,05,41,2.40
2016,11,16,05,42,2.40
2016,11,16,05,43,2.40
2016,11,16,05,44,2.50
2016,11,16,05,45,2.50
2016,11,16,05,46,2.50
2016,11,16,05,47,2.50
2016,11,16,05,48,2.50
2016,11,16,05,49,2.50
2016,11,16,05,50,2.50
2016,11,16,05,51,2.50
2016,11,16,05,52,2.60
2016,11,16,05,53,2.60
2016,11,16,05,54,2.60
2016,11,16,05,55,2.70
2016,11,16,05,56,2.70
2016,11,16,05,57,2.70
2016,11,16,05,58,2.70
2016,11,16,05,59,2.70
2016,11,16,06,00,2.70
2016,11,16,06,01,2.70
2016,11,16,06,02,2.60
2016,11,16,06,03,2.60
2016,11,16,06,04,2.70
2016,11,16,06,05,2.70
2016,11,16,06,06,2.70
2016,11,16,06,07,2.70
2016,11,16,06,08,2.70
2016,11,16,06,09,2.70
2016,11,16,06,10,2.70
2016,11,16,06,11,2.70
2016,11,16,06,12,2.80
2016,11,16,06,13,2.80
2016,11,16,06,14,2.80
2016,11,16,06,15,2.80
2016,11,16,06,16,2.80
2016,11,16,06,17,2.80
2016,11,16,06,18,2.80
2016,11,16,06,19,2.80
2016,11,16,06,20,2.80
2016,11,16,06,21,2.80
2016,11,16,06,22,2.80
2016,11,16,06,23,2.80
2016,11,16,06,24,2.80
2016,11,16,06,25,2.80
2016,11,16,06,26,2.90
2016,11,16,06,27,2.90
2016,11,16,06,28,2.90
2016,11,16,06,29,3.00
2016,11,16,06,30,3.00
2016,11,16,06,31,2.90
2016,11,16,06,32,2.90
2016,11,16,06,33,2.90
2016,11,16,06,34,2.90
2016,11,16,06,35,2.90
2016,11,16,06,36,2.90
2016,11,16,06,37,2.90
2016,11,16,06,38,2.90
2016,11,16,06,39,2.90
2016,11,16,06,40,2.90
2016,11,16,06,41,2.90
2016,11,16,06,42,2.90
2016,11,16,06,43,3.00
2016,11,16,06,44,3.00
2016,11,16,06,45,3.10
2016,11,16,06,46,3.20
2016,11,16,06,47,3.20
2016,11,16,06,48,3.20
2016,11,16,06,49,3.20
2016,11,16,06,50,3.20
2016,11,16,06,51,3.20
2016,11,16,06,52,3.20
2016,11,16,06,53,3.20
2016,11,16,06,54,3.20
2016,11,16,06,55,3.20
2016,11,16,06,56,3.20
2016,11,16,06,57,3.30
2016,11,16,06,58,3.30
2016,11,16,06,59,3.30
2016,11,16,07,00,3.20
2016,11,16,07,01,3.20
2016,11,16,07,02,3.20
2016,11,16,07,03,3.20
2016,11,16,07,04,3.20
2016,11,16,07,05,3.20
2016,11,16,07,06,3.20
2016,11,16,07,07,3.20
2016,11,16,07,08,3.20
2016,11,16,07,09,3.20
2016,11,16,07,10,3.20
2016,11,16,07,11,3.20
2016,11,16,07,12,3.20
2016,11,16,07,13,3.20
2016,11,16,07,14,3.20
2016,11,16,07,15,3.20
2016,11,16,07,16,3.20
2016,11,16,07,17,3.20
2016,11,16,07,18,3.20
2016,11,16,07,19,3.20
2016,11,16,07,20,3.20
2016,11,16,07,21,3.20
2016,11,16,07,22,3.20
2016,11,16,07,23,3.10
2016,11,16,07,24,3.10
2016,11,16,07,25,3.10
2016,11,16,07,26,3.10
2016,11,16,07,27,3.00
2016,11,16,07,28,3.00
2016,11,16,07,29,2.90
2016,11,16,07,30,2.90
2016,11,16,07,31,2.90
2016,11,16,07,32,2.90
2016,11,16,07,33,2.90
2016,11,16,07,34,2.90
2016,11,16,07,35,2.90
2016,11,16,07,36,2.90
2016,11,16,07,37,2.90
2016,11,16,07,38,2.90
2016,11,16,07,39,2.90
2016,11,16,07,40,2.90
2016,11,16,07,41,2.90
2016,11,16,07,42,2.90
2016,11,16,07,43,2.90
2016,11,16,07,44,2.90
2016,11,16,07,45,2.90
2016,11,16,07,46,2.80
2016,11,16,07,47,2.80
2016,11,16,07,48,2.80
2016,11,16,07,49,2.80
2016,11,16,07,50,2.80
2016,11,16,07,51,2.80
2016,11,16,07,52,2.70
2016,11,16,07,53,2.70
2016,11,16,07,54,2.70
2016,11,16,07,55,2.70
2016,11,16,07,56,2.80
2016,11,16,07,57,2.80
2016,11,16,07,58,2.80
2016,11,16,07,59,2.70
2016,11,16,08,00,2.70
2016,11,16,08,01,2.70
2016,11,16,08,02,2.70
2016,11,16,08,03,2.70
2016,11,16,08,04,2.80
2016,11,16,08,05,2.80
2016,11,16,08,06,2.80
2016,11,16,08,07,2.90
2016,11,16,08,08,2.90
2016,11,16,08,09,2.90
2016,11,16,08,10,2.90
2016,11,16,08,11,2.90
2016,11,16,08,12,2.90
2016,11,16,08,13,2.90
2016,11,16,08,14,2.90
2016,11,16,08,15,2.90
2016,11,16,08,16,2.90
2016,11,16,08,17,3.00
2016,11,16,08,18,3.00
2016,11,16,08,19,3.10
2016,11,16,08,20,3.20
2016,11,16,08,21,3.20
2016,11,16,08,22,3.20
2016,11,16,08,23,3.20
2016,11,16,08,24,3.20
2016,11,16,08,25,3.20
2016,11,16,08,26,3.20
2016,11,16,08,27,3.20
2016,11,16,08,28,3.20
2016,11,16,08,29,3.30
2016,11,16,08,30,3.30
2016,11,16,08,31,3.30
2016,11,16,08,32,3.30
2016,11,16,08,33,3.40
2016,11,16,08,34,3.40
2016,11,16,08,35,3.50
2016,11,16,08,36,3.50
2016,11,16,08,37,3.50
2016,11,16,08,38,3.50
2016,11,16,08,39,3.50
2016,11,16,08,40,3.50
2016,11,16,08,41,3.50
2016,11,16,08,42,3.50
2016,11,16,08,43,3.50
2016,11,16,08,44,3.50
2016,11,16,08,45,3.50
2016,11,16,08,46,3.50
2016,11,16,08,47,3.60
2016,11,16,08,48,3.60
2016,11,16,08,49,3.60
2016,11,16,08,50,3.70
2016,11,16,08,51,3.70
2016,11,16,08,52,3.80
2016,11,16,08,53,3.80
2016,11,16,08,54,3.80
2016,11,16,08,55,3.80
2016,11,16,08,56,3.80
2016,11,16,08,57,3.80
2016,11,16,08,58,3.80
2016,11,16,08,59,3.90
2016,11,16,09,00,3.90
2016,11,16,09,01,3.90
2016,11,16,09,02,4.00
2016,11,16,09,03,4.00
2016,11,16,09,04,4.10
2016,11,16,09,05,4.10
2016,11,16,09,06,4.10
2016,11,16,09,07,4.20
2016,11,16,09,08,4.20
2016,11,16,09,09,4.30
2016,11,16,09,10,4.40
2016,11,16,09,11,4.40
2016,11,16,09,12,4.40
2016,11,16,09,13,4.40
2016,11,16,09,14,4.50
2016,11,16,09,15,4.50
2016,11,16,09,16,4.50
2016,11,16,09,17,4.60
2016,11,16,09,18,4.60
2016,11,16,09,19,4.60
2016,11,16,09,20,4.70
2016,11,16,09,21,4.70
2016,11,16,09,22,4.80
2016,11,16,09,23,4.80
2016,11,16,09,24,4.90
2016,11,16,09,25,5.00
2016,11,16,09,26,5.10
2016,11,16,09,27,5.20
2016,11,16,09,28,5.20
2016,11,16,09,29,5.30
2016,11,16,09,30,5.30
2016,11,16,09,31,5.40
2016,11,16,09,32,5.50
2016,11,16,09,33,5.60
2016,11,16,09,34,5.70
2016,11,16,09,35,5.90
2016,11,16,09,36,6.00
2016,11,16,09,37,6.10
2016,11,16,09,38,6.20
2016,11,16,09,39,6.30
2016,11,16,09,40,6.40
2016,11,16,09,41,6.40
2016,11,16,09,42,6.40
2016,11,16,09,43,6.40
2016,11,16,09,44,6.50
2016,11,16,09,45,6.50
2016,11,16,09,46,6.50
2016,11,16,09,47,6.50
2016,11,16,09,48,6.60
2016,11,16,09,49,6.60
2016,11,16,09,50,6.60
2016,11,16,09,51,6.60
2016,11,16,09,52,6.60
2016,11,16,09,53,6.60
2016,11,16,09,54,6.60
2016,11,16,09,55,6.70
2016,11,16,09,56,6.80
2016,11,16,09,57,6.80
2016,11,16,09,58,6.80
2016,11,16,09,59,6.80
2016,11,16,10,00,6.80
2016,11,16,10,01,6.80
2016,11,16,10,02,6.90
2016,11,16,10,03,6.90
2016,11,16,10,04,6.90
2016,11,16,10,05,6.90
2016,11,16,10,06,6.90
2016,11,16,10,07,6.90
2016,11,16,10,08,6.90
2016,11,16,10,09,6.90
2016,11,16,10,10,6.90
2016,11,16,10,11,7.00
2016,11,16,10,12,7.00
2016,11,16,10,13,7.10
2016,11,16,10,14,7.10
2016,11,16,10,15,7.20
2016,11,16,10,16,7.20
2016,11,16,10,17,7.30
2016,11,16,10,18,7.30
2016,11,16,10,19,7.30
2016,11,16,10,20,7.30
2016,11,16,10,21,7.40
2016,11,16,10,22,7.40
2016,11,16,10,23,7.40
2016,11,16,10,24,7.40
2016,11,16,10,25,7.40
2016,11,16,10,26,7.40
2016,11,16,10,27,7.40
2016,11,16,10,28,7.50
2016,11,16,10,29,7.50
2016,11,16,10,30,7.50
2016,11,16,10,31,7.50
2016,11,16,10,32,7.60
2016,11,16,10,33,7.60
2016,11,16,10,34,7.60
2016,11,16,10,35,7.50
2016,11,16,10,36,7.50
2016,11,16,10,37,7.50
2016,11,16,10,38,7.50
2016,11,16,10,39,7.50
2016,11,16,10,40,7.50
2016,11,16,10,41,7.60
2016,11,16,10,42,7.60
2016,11,16,10,43,7.60
2016,11,16,10,44,7.60
2016,11,16,10,45,7.60
2016,11,16,10,46,7.60
2016,11,16,10,47,7.60
2016,11,16,10,48,7.60
2016,11,16,10,49,7.60
2016,11,16,10,50,7.60
2016,11,16,10,51,7.60
2016,11,16,10,52,7.60
2016,11,16,10,53,7.60
2016,11,16,10,54,7.60
2016,11,16,10,55,7.50
2016,11,16,10,56,7.60
2016,11,16,10,57,7.60
2016,11,16,10,58,7.60
2016,11,16,10,59,7.60
2016,11,16,11,00,7.60
2016,11,16,11,01,7.60
2016,11,16,11,02,7.70
2016,11,16,11,03,7.70
2016,11,16,11,04,7.70
2016,11,16,11,05,7.70
2016,11,16,11,06,7.80
2016,11,16,11,07,7.80
2016,11,16,11,08,7.80
2016,11,16,11,09,7.80
2016,11,16,11,10,7.80
2016,11,16,11,11,7.80
2016,11,16,11,12,7.80
2016,11,16,11,13,7.80
2016,11,16,11,14,7.80
2016,11,16,11,15,7.80
2016,11,16,11,16,7.90
2016,11,16,11,17,7.90
2016,11,16,11,18,7.90
2016,11,16,11,19,7.90
2016,11,16,11,20,7.90
2016,11,16,11,21,7.90
2016,11,16,11,22,7.90
2016,11,16,11,23,7.90
2016,11,16,11,24,7.90
2016,11,16,11,25,8.00
2016,11,16,11,26,8.00
2016,11,16,11,27,8.00
2016,11,16,11,28,8.00
2016,11,16,11,29,8.00
2016,11,16,11,30,8.00
2016,11,16,11,31,8.00
2016,11,16,11,32,8.00
2016,11,16,11,33,8.10
2016,11,16,11,34,8.10
2016,11,16,11,35,8.10
2016,11,16,11,36,8.10
2016,11,16,11,37,8.10
2016,11,16,11,38,8.20
2016,11,16,11,39,8.20
2016,11,16,11,40,8.20
2016,11,16,11,41,8.20
2016,11,16,11,42,8.20
2016,11,16,11,43,8.20
2016,11,16,11,44,8.30
2016,11,16,11,45,8.30
2016,11,16,11,46,8.30
2016,11,16,11,47,8.30
2016,11,16,11,48,8.30
2016,11,16,11,49,8.30
2016,11,16,11,50,8.40
2016,11,16,11,51,8.50
2016,11,16,11,52,8.50
2016,11,16,11,53,8.60
2016,11,16,11,54,8.60
2016,11,16,11,55,8.60
2016,11,16,11,56,8.70
2016,11,16,11,57,8.70
2016,11,16,11,58,8.70
2016,11,16,11,59,8.70
2016,11,16,12,00,8.60
2016,11,16,12,01,8.60
2016,11,16,12,02,8.70
2016,11,16,12,03,8.70
2016,11,16,12,04,8.70
2016,11,16,12,05,8.70
2016,11,16,12,06,8.60
2016,11,16,12,07,8.60
2016,11,16,12,08,8.60
2016,11,16,12,09,8.60
2016,11,16,12,10,8.50
2016,11,16,12,11,8.60
2016,11,16,12,12,8.60
2016,11,16,12,13,8.60
2016,11,16,12,14,8.60
2016,11,16,12,15,8.60
2016,11,16,12,16,8.60
2016,11,16,12,17,8.60
2016,11,16,12,18,8.60
2016,11,16,12,19,8.60
2016,11,16,12,20,8.60
2016,11,16,12,21,8.60
2016,11,16,12,22,8.60
2016,11,16,12,23,8.60
2016,11,16,12,24,8.60
2016,11,16,12,25,8.60
2016,11,16,12,26,8.70
2016,11,16,12,27,8.60
2016,11,16,12,28,8.60
2016,11,16,12,29,8.60
2016,11,16,12,30,8.60
2016,11,16,12,31,8.60
2016,11,16,12,32,8.60
2016,11,16,12,33,8.60
2016,11,16,12,34,8.60
2016,11,16,12,35,8.60
2016,11,16,12,36,8.60
2016,11,16,12,37,8.60
2016,11,16,12,38,8.60
2016,11,16,12,39,8.60
2016,11,16,12,40,8.60
2016,11,16,12,41,8.60
2016,11,16,12,42,8.60
2016,11,16,12,43,8.60
2016,11,16,12,44,8.60
2016,11,16,12,45,8.60
2016,11,16,12,46,8.60
2016,11,16,12,47,8.60
2016,11,16,12,48,8.60
2016,11,16,12,49,8.60
2016,11,16,12,50,8.60
2016,11,16,12,51,8.60
2016,11,16,12,52,8.60
2016,11,16,12,53,8.60
2016,11,16,12,54,8.50
2016,11,16,12,55,8.50
2016,11,16,12,56,8.50
2016,11,16,12,57,8.50
2016,11,16,12,58,8.50
2016,11,16,12,59,8.50
2016,11,16,13,00,8.50
2016,11,16,13,01,8.50
2016,11,16,13,02,8.50
2016,11,16,13,03,8.50
2016,11,16,13,04,8.50
2016,11,16,13,05,8.50
2016,11,16,13,06,8.50
2016,11,16,13,07,8.50
2016,11,16,13,08,8.40
2016,11,16,13,09,8.40
2016,11,16,13,10,8.40
2016,11,16,13,11,8.40
2016,11,16,13,12,8.40
2016,11,16,13,13,8.40
2016,11,16,13,14,8.40
2016,11,16,13,15,8.40
2016,11,16,13,16,8.40
2016,11,16,13,17,8.40
2016,11,16,13,18,8.40
2016,11,16,13,19,8.40
2016,11,16,13,20,8.50
2016,11,16,13,21,8.50
2016,11,16,13,22,8.50
2016,11,16,13,23,8.50
2016,11,16,13,24,8.50
2016,11,16,13,25,8.50
2016,11,16,13,26,8.50
2016,11,16,13,27,8.50
2016,11,16,13,28,8.50
2016,11,16,13,29,8.50
2016,11,16,13,30,8.50
2016,11,16,13,31,8.50
2016,11,16,13,32,8.50
2016,11,16,13,33,8.50
2016,11,16,13,34,8.50
2016,11,16,13,35,8.50
2016,11,16,13,36,8.50
2016,11,16,13,37,8.50
2016,11,16,13,38,8.40
2016,11,16,13,39,8.40
2016,11,16,13,40,8.40
2016,11,16,13,41,8.40
2016,11,16,13,42,8.40
2016,11,16,13,43,8.40
2016,11,16,13,44,8.40
2016,11,16,13,45,8.30
2016,11,16,13,46,8.30
2016,11,16,13,47,8.30
2016,11,16,13,48,8.30
2016,11,16,13,49,8.30
2016,11,16,13,50,8.30
2016,11,16,13,51,8.30
2016,11,16,13,52,8.30
2016,11,16,13,53,8.30
2016,11,16,13,54,8.20
2016,11,16,13,55,8.20
2016,11,16,13,56,8.20
2016,11,16,13,57,8.20
2016,11,16,13,58,8.20
2016,11,16,13,59,8.20
2016,11,16,14,00,8.20
2016,11,16,14,01,8.20
2016,11,16,14,02,8.20
2016,11,16,14,03,8.20
2016,11,16,14,04,8.10
2016,11,16,14,05,8.10
2016,11,16,14,06,8.10
2016,11,16,14,07,8.10
2016,11,16,14,08,8.10
2016,11,16,14,09,8.10
2016,11,16,14,10,8.10
2016,11,16,14,11,8.10
2016,11,16,14,12,8.10
2016,11,16,14,13,8.10
2016,11,16,14,14,8.10
2016,11,16,14,15,8.10
2016,11,16,14,16,8.10
2016,11,16,14,17,8.00
2016,11,16,14,18,8.00
2016,11,16,14,19,8.00
2016,11,16,14,20,8.00
2016,11,16,14,21,8.00
2016,11,16,14,22,7.90
2016,11,16,14,23,7.90
2016,11,16,14,24,7.90
2016,11,16,14,25,7.90
2016,11,16,14,26,7.80
2016,11,16,14,27,7.80
2016,11,16,14,28,7.70
2016,11,16,14,29,7.70
2016,11,16,14,30,7.70
2016,11,16,14,31,7.70
2016,11,16,14,32,7.60
2016,11,16,14,33,7.60
2016,11,16,14,34,7.60
2016,11,16,14,35,7.60
2016,11,16,14,36,7.50
2016,11,16,14,37,7.50
2016,11,16,14,38,7.50
2016,11,16,14,39,7.40
2016,11,16,14,40,7.40
2016,11,16,14,41,7.40
2016,11,16,14,42,7.40
2016,11,16,14,43,7.40
2016,11,16,14,44,7.40
2016,11,16,14,45,7.50
2016,11,16,14,46,7.50
2016,11,16,14,47,7.50
2016,11,16,14,48,7.50
2016,11,16,14,49,7.50
2016,11,16,14,50,7.50
2016,11,16,14,51,7.40
2016,11,16,14,52,7.40
2016,11,16,14,53,7.40
2016,11,16,14,54,7.40
2016,11,16,14,55,7.30
2016,11,16,14,56,7.30
2016,11,16,14,57,7.20
2016,11,16,14,58,7.10
2016,11,16,14,59,7.10
2016,11,16,15,00,7.10
2016,11,16,15,01,7.10
2016,11,16,15,02,7.10
2016,11,16,15,03,7.00
2016,11,16,15,04,7.00
2016,11,16,15,05,6.90
2016,11,16,15,06,6.80
2016,11,16,15,07,6.80
2016,11,16,15,08,6.70
2016,11,16,15,09,6.70
2016,11,16,15,10,6.60
2016,11,16,15,11,6.60
2016,11,16,15,12,6.60
2016,11,16,15,13,6.60
2016,11,16,15,14,6.60
2016,11,16,15,15,6.70
2016,11,16,15,16,6.70
2016,11,16,15,17,6.70
2016,11,16,15,18,6.70
2016,11,16,15,19,6.70
2016,11,16,15,20,6.70
2016,11,16,15,21,6.80
2016,11,16,15,22,6.80
2016,11,16,15,23,6.80
2016,11,16,15,24,6.80
2016,11,16,15,25,6.80
2016,11,16,15,26,6.90
2016,11,16,15,27,6.90
2016,11,16,15,28,6.90
2016,11,16,15,29,6.90
2016,11,16,15,30,6.90
2016,11,16,15,31,6.90
2016,11,16,15,32,6.80
2016,11,16,15,33,6.80
2016,11,16,15,34,6.80
2016,11,16,15,35,6.80
2016,11,16,15,36,6.80
2016,11,16,15,37,6.80
2016,11,16,15,38,6.80
2016,11,16,15,39,6.80
2016,11,16,15,40,6.70
2016,11,16,15,41,6.70
2016,11,16,15,42,6.70
2016,11,16,15,43,6.70
2016,11,16,15,44,6.70
2016,11,16,15,45,6.70
2016,11,16,15,46,6.60
2016,11,16,15,47,6.60
2016,11,16,15,48,6.60
2016,11,16,15,49,6.60
2016,11,16,15,50,6.60
2016,11,16,15,51,6.60
2016,11,16,15,52,6.60
2016,11,16,15,53,6.60
2016,11,16,15,54,6.60
2016,11,16,15,55,6.60
2016,11,16,15,56,6.60
2016,11,16,15,57,6.60
2016,11,16,15,58,6.60
2016,11,16,15,59,6.60
2016,11,16,16,00,6.60
2016,11,16,16,01,6.60
2016,11,16,16,02,6.60
2016,11,16,16,03,6.50
2016,11,16,16,04,6.50
2016,11,16,16,05,6.50
2016,11,16,16,06,6.50
2016,11,16,16,07,6.40
2016,11,16,16,08,6.40
2016,11,16,16,09,6.40
2016,11,16,16,10,6.40
2016,11,16,16,11,6.30
2016,11,16,16,12,6.30
2016,11,16,16,13,6.30
2016,11,16,16,14,6.30
2016,11,16,16,15,6.40
2016,11,16,16,16,6.40
2016,11,16,16,17,6.40
2016,11,16,16,18,6.40
2016,11,16,16,19,6.40
2016,11,16,16,20,6.40
2016,11,16,16,21,6.30
2016,11,16,16,22,6.30
2016,11,16,16,23,6.30
2016,11,16,16,24,6.30
2016,11,16,16,25,6.30
2016,11,16,16,26,6.30
2016,11,16,16,27,6.30
2016,11,16,16,28,6.30
2016,11,16,16,29,6.30
2016,11,16,16,30,6.30
2016,11,16,16,31,6.30
2016,11,16,16,32,6.30
2016,11,16,16,33,6.30
2016,11,16,16,34,6.30
2016,11,16,16,35,6.30
2016,11,16,16,36,6.30
2016,11,16,16,37,6.30
2016,11,16,16,38,6.30
2016,11,16,16,39,6.30
2016,11,16,16,40,6.30
2016,11,16,16,41,6.30
2016,11,16,16,42,6.30
2016,11,16,16,43,6.20
2016,11,16,16,44,6.20
2016,11,16,16,45,6.20
2016,11,16,16,46,6.20
2016,11,16,16,47,6.20
2016,11,16,16,48,6.20
2016,11,16,16,49,6.20
2016,11,16,16,50,6.20
2016,11,16,16,51,6.20
2016,11,16,16,52,6.10
2016,11,16,16,53,6.10
2016,11,16,16,54,6.10
2016,11,16,16,55,6.10
2016,11,16,16,56,6.10
2016,11,16,16,57,6.10
2016,11,16,16,58,6.10
2016,11,16,16,59,6.10
2016,11,16,17,00,6.10
2016,11,16,17,01,6.10
2016,11,16,17,02,6.10
2016,11,16,17,03,6.10
2016,11,16,17,04,6.10
2016,11,16,17,05,6.10
2016,11,16,17,06,6.10
2016,11,16,17,07,6.00
2016,11,16,17,08,6.00
2016,11,16,17,09,6.00
2016,11,16,17,10,6.00
2016,11,16,17,11,6.00
2016,11,16,17,12,6.00
2016,11,16,17,13,6.00
2016,11,16,17,14,6.00
2016,11,16,17,15,6.00
2016,11,16,17,16,6.00
2016,11,16,17,17,6.00
2016,11,16,17,18,6.00
2016,11,16,17,19,6.00
2016,11,16,17,20,5.90
2016,11,16,17,21,5.90
2016,11,16,17,22,5.90
2016,11,16,17,23,5.90
2016,11,16,17,24,5.90
2016,11,16,17,25,5.90
2016,11,16,17,26,5.80
2016,11,16,17,27,5.80
2016,11,16,17,28,5.80
2016,11,16,17,29,5.80
2016,11,16,17,30,5.70
2016,11,16,17,31,5.70
2016,11,16,17,32,5.70
2016,11,16,17,33,5.60
2016,11,16,17,34,5.60
2016,11,16,17,35,5.60
2016,11,16,17,36,5.50
2016,11,16,17,37,5.50
2016,11,16,17,38,5.50
2016,11,16,17,39,5.50
2016,11,16,17,40,5.50
2016,11,16,17,41,5.40
2016,11,16,17,42,5.40
2016,11,16,17,43,5.40
2016,11,16,17,44,5.40
2016,11,16,17,45,5.40
2016,11,16,17,46,5.40
2016,11,16,17,47,5.40
2016,11,16,17,48,5.40
2016,11,16,17,49,5.40
2016,11,16,17,50,5.40
2016,11,16,17,51,5.30
2016,11,16,17,52,5.30
2016,11,16,17,53,5.20
2016,11,16,17,54,5.20
2016,11,16,17,55,5.20
2016,11,16,17,56,5.20
2016,11,16,17,57,5.20
2016,11,16,17,58,5.10
2016,11,16,17,59,5.10
2016,11,16,18,00,5.10
2016,11,16,18,01,5.10
2016,11,16,18,02,5.10
2016,11,16,18,03,5.10
2016,11,16,18,04,5.10
2016,11,16,18,05,5.10
2016,11,16,18,06,5.10
2016,11,16,18,07,5.10
2016,11,16,18,08,5.10
2016,11,16,18,09,5.10